HYS673 LRCL-LROP

Flight info

Callsign HYS673
Flight time 0h 33m
Altitude 33000
Route IRLOX DCT BIVBU DCT TOSVI
Aircraft A320/M-SDE3FGHIRWY/LB1

Departure

Time 2026-04-30 20:50
Airport Avram Iancu Cluj International Airport (LRCL)

Arrival

Time 2026-04-30 21:24
Airport Bucharest Henri Coandă International Airport (LROP)
Time Latitude Longitude Altitude Speed Heading
2026-04-30 20:37 46.78540 23.69249 1043 ft 0 kts 252°
2026-04-30 20:43 46.78543 23.69264 1043 ft 2 kts 253°
2026-04-30 20:43 46.78548 23.69287 1043 ft 2 kts 257°
2026-04-30 20:43 46.78551 23.69311 1043 ft 2 kts 269°
2026-04-30 20:44 46.78538 23.69342 1043 ft 1 kts 342°
2026-04-30 20:44 46.78537 23.69343 1043 ft 0 kts 342°
2026-04-30 20:45 46.78544 23.69340 1043 ft 2 kts 342°
2026-04-30 20:45 46.78570 23.69327 1043 ft 6 kts 342°
2026-04-30 20:45 46.78616 23.69303 1043 ft 9 kts 339°
2026-04-30 20:46 46.78705 23.69039 1043 ft 17 kts 251°
2026-04-30 20:46 46.78664 23.68863 1043 ft 20 kts 251°
2026-04-30 20:47 46.78571 23.68441 1043 ft 17 kts 253°
2026-04-30 20:47 46.78532 23.68262 1043 ft 20 kts 251°
2026-04-30 20:48 46.78431 23.67818 1043 ft 26 kts 252°
2026-04-30 20:48 46.78373 23.67560 1043 ft 26 kts 253°
2026-04-30 20:48 46.78341 23.67332 1043 ft 23 kts 270°
2026-04-30 20:48 46.78418 23.67182 1043 ft 19 kts 343°
2026-04-30 20:49 46.78482 23.67244 1043 ft 8 kts 71°
2026-04-30 20:49 46.78484 23.67254 1043 ft 2 kts 72°
2026-04-30 20:49 46.78487 23.67268 1043 ft 1 kts 71°
2026-04-30 20:50 46.78554 23.67565 1043 ft 67 kts 72°
2026-04-30 20:50 46.78771 23.68524 1043 ft 129 kts 72°
2026-04-30 20:50 46.79074 23.69888 1352 ft 145 kts 73°
2026-04-30 20:50 46.79379 23.71285 1985 ft 143 kts 73°
2026-04-30 20:51 46.79704 23.72710 2545 ft 148 kts 75°
2026-04-30 20:51 46.79093 23.75644 3025 ft 188 kts 154°
2026-04-30 20:51 46.77774 23.76270 3358 ft 212 kts 165°
2026-04-30 20:52 46.76258 23.76836 3800 ft 237 kts 166°
2026-04-30 20:52 46.74590 23.77443 4461 ft 254 kts 165°
2026-04-30 20:52 46.71096 23.78731 6510 ft 256 kts 163°
2026-04-30 20:53 46.69405 23.79422 8165 ft 244 kts 161°
2026-04-30 20:53 46.67787 23.80083 9077 ft 253 kts 164°
2026-04-30 20:53 46.66005 23.80740 9523 ft 276 kts 165°
2026-04-30 20:54 46.62036 23.82159 10694 ft 309 kts 165°
2026-04-30 20:54 46.59904 23.82934 10973 ft 332 kts 165°
2026-04-30 20:54 46.57595 23.83787 11295 ft 351 kts 165°
2026-04-30 20:55 46.52774 23.85581 12669 ft 363 kts 164°
2026-04-30 20:55 46.50304 23.86504 13393 ft 369 kts 164°
2026-04-30 20:55 46.47801 23.87443 14112 ft 374 kts 164°
2026-04-30 20:56 46.42694 23.89351 15383 ft 383 kts 164°
2026-04-30 20:56 46.40093 23.90316 16008 ft 388 kts 164°
2026-04-30 20:56 46.34811 23.92280 17286 ft 396 kts 163°
2026-04-30 20:57 46.32132 23.93277 17962 ft 400 kts 163°
2026-04-30 20:57 46.29414 23.94285 18626 ft 404 kts 163°
2026-04-30 20:57 46.26676 23.95296 19214 ft 409 kts 163°
2026-04-30 20:58 46.21100 23.97354 20410 ft 417 kts 163°
2026-04-30 20:58 46.18274 23.98393 21023 ft 421 kts 163°
2026-04-30 20:58 46.15418 23.99445 21593 ft 426 kts 163°
2026-04-30 20:58 46.12535 24.00509 22131 ft 430 kts 163°
2026-04-30 20:59 46.06689 24.02665 23175 ft 438 kts 163°
2026-04-30 20:59 46.03762 24.03738 23661 ft 442 kts 163°
2026-04-30 21:00 45.97749 24.05943 24520 ft 449 kts 163°
2026-04-30 21:00 45.91659 24.08171 25332 ft 454 kts 164°
2026-04-30 21:01 45.85487 24.10418 26136 ft 460 kts 164°
2026-04-30 21:01 45.82379 24.11556 26510 ft 462 kts 165°
2026-04-30 21:01 45.76121 24.13842 27358 ft 466 kts 165°
2026-04-30 21:02 45.72970 24.14986 27760 ft 468 kts 165°
2026-04-30 21:02 45.69803 24.16134 28190 ft 471 kts 165°
2026-04-30 21:02 45.66615 24.17288 28609 ft 473 kts 165°
2026-04-30 21:02 45.63405 24.18397 28982 ft 476 kts 169°
2026-04-30 21:03 45.60124 24.19125 29352 ft 478 kts 172°
2026-04-30 21:03 45.56826 24.19808 29727 ft 479 kts 173°
2026-04-30 21:03 45.53521 24.20491 30083 ft 481 kts 173°
2026-04-30 21:03 45.50204 24.21176 30471 ft 482 kts 173°
2026-04-30 21:04 45.46892 24.21863 30880 ft 481 kts 173°
2026-04-30 21:04 45.43587 24.22551 31286 ft 480 kts 173°
2026-04-30 21:04 45.36987 24.23929 32087 ft 479 kts 173°
2026-04-30 21:05 45.33701 24.24611 32541 ft 477 kts 173°
2026-04-30 21:05 45.30465 24.25279 32977 ft 475 kts 174°
2026-04-30 21:05 45.27190 24.25953 33315 ft 475 kts 174°
2026-04-30 21:05 45.23919 24.26625 33514 ft 475 kts 174°
2026-04-30 21:06 45.20652 24.27297 33377 ft 474 kts 174°
2026-04-30 21:06 45.17410 24.28165 33168 ft 475 kts 166°
2026-04-30 21:06 45.14353 24.29961 31736 ft 478 kts 149°
2026-04-30 21:06 45.11765 24.32949 29914 ft 484 kts 131°
2026-04-30 21:07 45.09847 24.36860 27910 ft 485 kts 115°
2026-04-30 21:07 45.08346 24.41093 26252 ft 479 kts 115°
2026-04-30 21:07 45.06834 24.45253 24934 ft 470 kts 115°
2026-04-30 21:07 45.05346 24.49241 24334 ft 447 kts 115°
2026-04-30 21:08 45.03912 24.53037 23572 ft 429 kts 115°
2026-04-30 21:08 45.02530 24.56685 22903 ft 413 kts 115°
2026-04-30 21:08 45.01202 24.60208 22265 ft 402 kts 115°
2026-04-30 21:08 44.99890 24.63717 21655 ft 405 kts 114°
2026-04-30 21:09 44.98578 24.67242 21035 ft 406 kts 114°
2026-04-30 21:09 44.97267 24.70764 20445 ft 405 kts 114°
2026-04-30 21:09 44.95957 24.74279 19865 ft 404 kts 114°
2026-04-30 21:09 44.94647 24.77784 19295 ft 403 kts 114°
2026-04-30 21:10 44.93340 24.81277 18735 ft 401 kts 114°
2026-04-30 21:10 44.92035 24.84747 18112 ft 399 kts 114°
2026-04-30 21:10 44.90738 24.88185 17550 ft 394 kts 115°
2026-04-30 21:10 44.89457 24.91581 16968 ft 390 kts 115°
2026-04-30 21:11 44.88187 24.94943 16388 ft 387 kts 115°
2026-04-30 21:11 44.86931 24.98273 15794 ft 383 kts 115°
2026-04-30 21:11 44.85689 25.01569 15189 ft 379 kts 115°
2026-04-30 21:11 44.84451 25.04843 14581 ft 376 kts 116°
2026-04-30 21:12 44.83222 25.08086 13932 ft 373 kts 116°
2026-04-30 21:12 44.82003 25.11293 13292 ft 369 kts 117°
2026-04-30 21:12 44.80800 25.14455 12683 ft 364 kts 117°
2026-04-30 21:12 44.79611 25.17580 12076 ft 360 kts 116°
2026-04-30 21:13 44.78436 25.20667 11470 ft 356 kts 116°
2026-04-30 21:13 44.77278 25.23714 11067 ft 347 kts 116°
2026-04-30 21:13 44.76163 25.26640 10944 ft 331 kts 116°
2026-04-30 21:13 44.75107 25.29402 10798 ft 309 kts 116°
2026-04-30 21:14 44.74114 25.31988 10426 ft 294 kts 115°
2026-04-30 21:14 44.73162 25.34472 10245 ft 288 kts 115°
2026-04-30 21:14 44.72212 25.36958 10099 ft 289 kts 115°
2026-04-30 21:14 44.71274 25.39407 9971 ft 288 kts 115°
2026-04-30 21:15 44.70311 25.41922 9841 ft 288 kts 115°
2026-04-30 21:15 44.69374 25.44369 9507 ft 290 kts 115°
2026-04-30 21:15 44.68430 25.46828 9184 ft 287 kts 115°
2026-04-30 21:15 44.67476 25.49308 8820 ft 283 kts 115°
2026-04-30 21:16 44.66547 25.51718 8186 ft 279 kts 115°
2026-04-30 21:16 44.65628 25.54097 7573 ft 275 kts 115°
2026-04-30 21:16 44.64723 25.56436 7008 ft 269 kts 115°
2026-04-30 21:16 44.63838 25.58722 6401 ft 265 kts 114°
2026-04-30 21:17 44.62967 25.60974 5859 ft 260 kts 114°
2026-04-30 21:17 44.62114 25.63189 5379 ft 256 kts 114°
2026-04-30 21:17 44.61261 25.65410 4915 ft 259 kts 114°
2026-04-30 21:17 44.60410 25.67616 4669 ft 254 kts 115°
2026-04-30 21:18 44.59564 25.69801 4297 ft 254 kts 115°
2026-04-30 21:18 44.58730 25.71945 4143 ft 246 kts 114°
2026-04-30 21:18 44.57925 25.74008 4021 ft 236 kts 114°
2026-04-30 21:18 44.57152 25.75987 3915 ft 226 kts 114°
2026-04-30 21:19 44.56411 25.77887 3811 ft 220 kts 114°
2026-04-30 21:19 44.55682 25.79768 3725 ft 219 kts 114°
2026-04-30 21:19 44.54980 25.81605 3629 ft 212 kts 110°
2026-04-30 21:19 44.54634 25.83537 3463 ft 200 kts 88°
2026-04-30 21:20 44.54741 25.85440 3249 ft 194 kts 81°
2026-04-30 21:20 44.54890 25.87301 3018 ft 191 kts 81°
2026-04-30 21:20 44.55034 25.89132 2803 ft 186 kts 81°
2026-04-30 21:20 44.55172 25.90898 2569 ft 179 kts 82°
2026-04-30 21:21 44.55304 25.92603 2332 ft 174 kts 82°
2026-04-30 21:21 44.55430 25.94220 2108 ft 158 kts 82°
2026-04-30 21:21 44.55644 25.96994 1760 ft 134 kts 82°
2026-04-30 21:22 44.55744 25.98285 1587 ft 133 kts 82°
2026-04-30 21:22 44.56043 26.02158 1069 ft 134 kts 82°
2026-04-30 21:23 44.56143 26.03466 898 ft 135 kts 83°
2026-04-30 21:23 44.56241 26.04783 730 ft 136 kts 84°
2026-04-30 21:23 44.56444 26.07405 394 ft 134 kts 85°
2026-04-30 21:24 44.56539 26.08671 322 ft 119 kts 85°
2026-04-30 21:24 44.56611 26.09605 317 ft 72 kts 84°
2026-04-30 21:24 44.56647 26.10069 318 ft 32 kts 84°
2026-04-30 21:24 44.56669 26.10396 318 ft 35 kts 85°
2026-04-30 21:25 44.56771 26.10760 317 ft 17 kts 360°
2026-04-30 21:25 44.56900 26.10738 313 ft 18 kts 355°
2026-04-30 21:25 44.57021 26.10675 314 ft 17 kts 304°
2026-04-30 21:26 44.57051 26.10273 312 ft 25 kts 264°
2026-04-30 21:26 44.57032 26.10013 312 ft 28 kts 263°
2026-04-30 21:27 44.56987 26.09431 318 ft 32 kts 264°
2026-04-30 21:27 44.56966 26.09170 318 ft 6 kts 262°
2026-04-30 21:27 44.56931 26.09157 318 ft 7 kts 169°
2026-04-30 21:28 44.56912 26.09161 317 ft 0 kts 173°